Location: Unspecified
(0.0000°N, 0.0000°E)
Time: 23:52:59
(UTC+00:00)

Vela 2A - Pass Details

Date: 09 September 2024
Orbit: 51020 x 155464 km, 49.4° (Epoch: 10 October)

Event Time Altitude Azimuth Distance (km) Brightness Sun altitude
Rises 13:36:05 0° 59° (ENE) 156,038 ? 64.8°
Reaches altitude 10° 14:27:00 10° 59° (ENE) 154,010 ? 52.3°
Maximum altitude 20:08:30 65° 355° (N) 141,449 ? -32.7°
Drops below altitude 10° 01:36:05 10° 287° (WNW) 135,269 ? -64.8°
Sets 02:22:03 0° 285° (WNW) 134,620 ? -53.5°
